ATLAS 5 CENTAUR DEB, 50214

Orbit data source: Space-Track

ATLAS 5 CENTAUR DEB, 50214 is space debris in GEO originally from a launch on Tue, 07 Dec 2021 UTC launched from the Air Force Eastern Test Range (AFETR). Debris objects in space refer to the collection of defunct objects orbiting the Earth. Examples of debris include non-operational satellites, rocket bodies, and fragments generated from explosions, collisions, or faulty payload assembly.

Not visible in the next 10 days
ATLAS 5 CENTAUR DEB details
Identifier
50214, 2021-118D
Orbit
GEO
Last TLE update20 hours ago
Origin
Flag of USAFRL/RV (US)
ManufacturerNGIS/HARRL3?
MissionDefense Technology
Bus & MotorESPASAT, Unknown motor
Mass~100 kg wet, 80 kg dry
Launch date (UTC)
2021-12-07 (3 years ago)
Launch vehicleUnknown
Launch site
Air Force Eastern Test Range (AFETR)
Object type
Payload
Rocket body
Debris
Shape & HBRUnknown
Radar Cross Section0.600 m², Large (>1 m²)

Expand to show TLE details & history

TLE from 20 hours ago
0 ATLAS 5 CENTAUR DEB
1 50214U 21118D   24360.70296661 -.00000065  00000-0  00000-0 0  9999
2 50214   2.9150  84.3595 0011904  41.2666 318.4063  0.99325887 11070
Epoch: 2024-12-25T16:52Z
Definitive object data (Epoch: 2024-12-25T16:52:16.315Z)
Latitude-0.00001°
Longitude96.17679°
Altitude36,015.426 km
Speed3.068 km/s
True Right ascension05h 35m 45s
True Declination0° 00' 00"
Sunlit
Object was in daylight at TLE epoch
Visualization TLE readout
Latitude-2.65065°
Longitude31.10395°
Altitude36,068.185 km
Speed3.064 km/s
Apparent Right ascension01h 07m 54s
Apparent Declination-7° 18' 07"
Sunlit
Object is in daylight
Visualization observer readout
Local Sidereal Time12:01:33
Azimuth331.084° NNW
Elevation-54.162°
Doppler factor1
Orbital elements
Apogee altitude36,105.439 km
Perigee altitude36,004.414 km
Semi-major axis42,433.064 km
Eccentricity0.0011904
Inclination2.915°
RAAN84.3595°
Arg. of periapsis41.2666°
True anomaly318.31564°
Mean anomaly318.4063°
Eccentric anomaly318.36098°
Mean motion0.24831 °/min
BSTARUnknown
Orbital period1449.83 mins
Loading historical data...
50214 neighbors
Authenticating...
Loading maneuver chart data...
Loading historical data...
Loading historical data...
Loading historical data...
Loading historical data...
Loading historical data...
Loading historical data...
Loading historical data...
Other satellites on launch #118 in the year 2021 (2021-12-07 UTC)

ATLAS 5 CENTAUR DEB Visibility forecast

Observer location: undefined°, undefined

ATLAS 5 CENTAUR DEB is not visible in the next 10 days
Span
Click to sort rows by Start time (UTC) header in descending order
Start Az.
Max El. time (UTC)
Max El. Az.
Max El.
End time (UTC)
End Az.
|